Content
SEND FEEDBACK

Daily
Averages
Monthly
Summary
United States of America

REMER, MINNESOTA


Home > North America > United States > Minnesota
Elevation: 408 meters     Latitude: 47 03N     Longitude: 093 55W

WEATHER
 
SELECT A DAY
Number of Records: 388,413;   Date Range: 10/9/98 - 7/26/14
 
SHARE

PRINT THIS DATA

[ ← Previous Day ]
WEATHER ALMANAC - 31 JANUARY, 2013
[ Next Day → ]
[ °F ]   °C
Weather ElementAverageHighLow
Temperature-21.6 °C-18 °C (12:36 am)-28 °C (11:16 pm)
Dewpoint-25.4 °C-21 °C (12:36 am)-32 °C (11:36 pm)
Humidity71.8 %84 % (5:36 am)60 % (4:16 pm)
Barometer1015.2 hPa1021.7 hPa (11:16 pm)1006.8 hPa (12:36 am)
Wind Speed16.3 km/h25.9 km/h (2:56 pm)
Wind Gust37 km/h (11:16 am)
Weather ElementAverage
Visibility13.2 km
Wind DirectionWNW (286.9 °)

Weather ElementTotal
Precipitation---
Heating Degree Days41.3 (Base 18.3)
Averaged from 71 records on 31 January, 2013
WEATHER CONDITIONS BREAKOUT
WIND DIRECTION BREAKOUT
WEATHER BY HOUR - 31 JANUARY, 2013
[ °F ]   °C
Local TimeTemperatureDewpointHumidityBarometerVisibilityWind DirectionWind SpeedGust SpeedPrecipitationEventsConditions
12:36 AM-18 °C-21 °C78 %1006.8 hPa16.1 kmWNW (290°)13 km/hClear
12:56 AM-18 °C-21 °C78 %1006.8 hPa16.1 kmWNW (290°)20.4 km/hClear
1:16 AM-18 °C-21 °C78 %1006.8 hPa16.1 kmWNW (290°)16.7 km/hMostly Cloudy
1:36 AM-18 °C-21 °C78 %1007.1 hPa16.1 kmWNW (290°)16.7 km/hOvercast
1:56 AM-18 °C-21 °C78 %1007.5 hPa8 kmWNW (290°)13 km/h29.6 km/hSnowLight Snow
2:16 AM-18 °C-21 °C78 %1007.8 hPa6.4 kmWNW (300°)16.7 km/hSnowLight Snow
2:36 AM-18 °C-21 °C78 %1007.8 hPa6.4 kmWNW (300°)20.4 km/h29.6 km/hSnowLight Snow
2:56 AM-19 °C-22 °C78 %1007.8 hPa4.8 kmWNW (300°)20.4 km/h27.8 km/hSnowLight Snow
3:16 AM-19 °C-22 °C78 %1008.1 hPa4 kmWNW (300°)14.8 km/h29.6 km/hSnowLight Snow
3:36 AM-19 °C-22 °C78 %1008.1 hPa6.4 kmWNW (300°)18.5 km/h29.6 km/hOvercast
3:56 AM-20 °C-23 °C78 %1008.5 hPa11.3 kmNW (310°)16.7 km/h27.8 km/hOvercast
4:16 AM-20 °C-23 °C78 %1008.8 hPa4.8 kmWNW (300°)13 km/h31.5 km/hSnowLight Snow
4:36 AM-20 °C-23 °C78 %1008.8 hPa6.4 kmWNW (300°)16.7 km/hSnowLight Snow
4:56 AM-20 °C-23 °C78 %1009.5 hPa8 kmWNW (300°)13 km/h25.9 km/hSnowLight Snow
5:16 AM-20 °C-23 °C78 %1009.5 hPa6.4 kmWNW (300°)14.8 km/h27.8 km/hSnowLight Snow
5:36 AM-21 °C-23 °C84 %1009.8 hPa8 kmWNW (300°)14.8 km/hSnowLight Snow
5:56 AM-21 °C-23 °C84 %1009.8 hPa6.4 kmWNW (290°)16.7 km/h27.8 km/hSnowLight Snow
6:16 AM-21 °C-24 °C77 %1010.2 hPa4.8 kmWNW (300°)14.8 km/hSnowLight Snow
6:36 AM-21 °C-24 °C77 %1010.5 hPa6.4 kmWNW (300°)16.7 km/h27.8 km/hSnowLight Snow
6:56 AM-21 °C-24 °C77 %1010.8 hPa6.4 kmWNW (300°)13 km/h27.8 km/hSnowLight Snow
7:16 AM-22 °C-24 °C84 %1011.2 hPa11.3 kmWNW (290°)16.7 km/h25.9 km/hSnowLight Snow
7:36 AM-22 °C-24 °C84 %1011.5 hPa11.3 kmWNW (300°)14.8 km/hSnowLight Snow
7:56 AM-22 °C-25 °C77 %1012.2 hPa16.1 kmWNW (300°)13 km/hClear
8:16 AM-22 °C-25 °C77 %1012.5 hPa11.3 kmNW (310°)13 km/hScattered Clouds
8:36 AM-22 °C-24 °C84 %1012.9 hPa11.3 kmWNW (300°)13 km/hScattered Clouds
8:56 AM-21 °C-25 °C71 %1013.2 hPa16.1 kmWNW (300°)11.1 km/h25.9 km/hClear
9:21 AM-22 °C-26 °C71 %1013.9 hPa16.1 kmWNW (290°)14.8 km/h25.9 km/hClear
9:36 AM-21 °C-25 °C71 %1013.9 hPa16.1 kmWNW (300°)13 km/h27.8 km/hClear
9:56 AM-21 °C-25 °C71 %1014.2 hPa16.1 kmWNW (300°)16.7 km/h29.6 km/hClear
10:16 AM-21 °C-25 °C71 %1014.6 hPa8 kmWNW (300°)13 km/h27.8 km/hSnowLight Snow
10:36 AM-21 °C-25 °C71 %1014.9 hPa11.3 kmWNW (300°)16.7 km/h31.5 km/hClear
10:56 AM-20 °C-24 °C71 %1015.2 hPa8 kmWNW (300°)18.5 km/h35.2 km/hHaze
11:16 AM-20 °C-25 °C65 %1015.6 hPa16.1 kmNW (310°)11.1 km/h37 km/hClear
11:37 AM-19 °C-24 °C66 %1015.6 hPa16.1 kmNorthClear
11:56 AM-19 °C-24 °C66 %1015.9 hPa16.1 kmNorthClear
12:16 PM-20 °C-24 °C71 %1015.9 hPa11.3 kmWNW (290°)22.2 km/h33.3 km/hClear
12:36 PM-19 °C-24 °C66 %1015.9 hPa8 kmWNW (300°)16.7 km/h33.3 km/hHaze
12:56 PM-19 °C-24 °C66 %1015.9 hPa16.1 kmWNW (300°)18.5 km/h33.3 km/hClear
1:16 PM-19 °C-24 °C66 %1016.3 hPa16.1 kmNW (310°)13 km/h35.2 km/hClear
1:36 PM-19 °C-24 °C66 %1016.3 hPa16.1 kmWNW (290°)20.4 km/h33.3 km/hClear
1:56 PM-19 °C-24 °C66 %1016.6 hPa16.1 kmWNW (290°)22.2 km/h33.3 km/hClear
2:16 PM-19 °C-24 °C66 %1016.6 hPa16.1 kmWNW (300°)16.7 km/h31.5 km/hClear
2:36 PM-19 °C-24 °C66 %1016.9 hPa16.1 kmWNW (300°)14.8 km/h33.3 km/hClear
2:56 PM-19 °C-24 °C66 %1017.3 hPa16.1 kmWNW (300°)25.9 km/h37 km/hClear
3:16 PM-19 °C-24 °C66 %1017.6 hPa16.1 kmWNW (290°)25.9 km/h37 km/hClear
3:36 PM-19 °C-24 °C66 %1017.9 hPa16.1 kmNW (310°)20.4 km/h27.8 km/hClear
3:56 PM-19 °C-24 °C66 %1018.3 hPa16.1 kmWNW (300°)18.5 km/h31.5 km/hClear
4:16 PM-19 °C-25 °C60 %1018.6 hPa16.1 kmWNW (290°)20.4 km/h33.3 km/hClear
4:36 PM-20 °C-26 °C60 %1019 hPa16.1 kmWNW (290°)18.5 km/h27.8 km/hClear
4:56 PM-21 °C-26 °C65 %1019 hPa16.1 kmWNW (300°)16.7 km/hClear
5:16 PM-22 °C-26 °C71 %1019.3 hPa16.1 kmWNW (290°)14.8 km/hClear
5:36 PM-22 °C-27 °C65 %1019.6 hPa16.1 kmWNW (290°)16.7 km/h27.8 km/hClear
5:56 PM-23 °C-28 °C65 %1020 hPa16.1 kmWNW (290°)18.5 km/h31.5 km/hClear
6:16 PM-23 °C-28 °C65 %1020 hPa16.1 kmWNW (290°)13 km/h31.5 km/hClear
6:36 PM-24 °C-28 °C70 %1020.3 hPa16.1 kmWNW (290°)14.8 km/h25.9 km/hClear
6:56 PM-24 °C-29 °C64 %1020.3 hPa16.1 kmWNW (290°)16.7 km/hClear
7:16 PM-24 °C-29 °C64 %1020.7 hPa16.1 kmWNW (300°)22.2 km/h29.6 km/hClear
7:36 PM-25 °C-29 °C70 %1020.7 hPa16.1 kmWNW (290°)18.5 km/h27.8 km/hClear
7:56 PM-26 °C-30 °C70 %1020.7 hPa16.1 kmWNW (290°)14.8 km/h25.9 km/hClear
8:16 PM-26 °C-30 °C70 %1021 hPa16.1 kmWest (280°)14.8 km/h27.8 km/hClear
8:36 PM-26 °C-30 °C70 %1021 hPa16.1 kmWest (280°)14.8 km/h29.6 km/hClear
8:56 PM-26 °C-31 °C64 %1021 hPa16.1 kmWNW (290°)14.8 km/hClear
9:16 PM-27 °C-31 °C70 %1021 hPa16.1 kmWest (280°)14.8 km/hClear
9:36 PM-27 °C-31 °C70 %1021.3 hPa16.1 kmWNW (290°)16.7 km/hClear
9:56 PM-27 °C-31 °C70 %1021.3 hPa16.1 kmWest (280°)11.1 km/hClear
10:16 PM-27 °C-31 °C70 %1021.3 hPa16.1 kmWNW (290°)13 km/hClear
10:36 PM-27 °C-31 °C70 %1021.3 hPa16.1 kmWNW (290°)16.7 km/h27.8 km/hClear
10:56 PM-27 °C-31 °C70 %1021.3 hPa16.1 kmWNW (290°)14.8 km/hClear
11:16 PM-28 °C-31 °C76 %1021.7 hPa16.1 kmWNW (290°)14.8 km/hClear
11:36 PM-28 °C-32 °C70 %1021.7 hPa16.1 kmWNW (290°)13 km/hClear
11:56 PM-28 °C-32 °C70 %1021.7 hPa16.1 kmWNW (290°)13 km/h27.8 km/hClear
Hourly data recorded from KXVG, located 0 kilometers away from Remer, Minnesota







STORIES FROM OUR PARTNERS